Regional Weather Roundup
Issued by NWS

Home | Current Version | Previous Version | Text Only | Print | Product List | Glossary On
Versions: 1 2 3 4 5 6 7 8 9 10 11 12 13 14 15 16 17 18 19 20 21 22 23 24 25 26 27 28 29 30 31 32 33 34 35 36 37 38 39 40 41 42 43 44 45 46 47 48 49 50
000
ASUS43 KFSD 260910
RWRSD

WEATHER ROUNDUP FOR SOUTH DAKOTA
NATIONAL WEATHER SERVICE SIOUX FALLS SD
400 AM CDT WED JUL 26 2017

NOTE: "FAIR" INDICATES FEW OR NO CLOUDS BELOW 12,000 FEET WITH NO
SIGNIFICANT WEATHER AND/OR OBSTRUCTIONS TO VISIBILITY.


SDZ001>005-009-010-012>017-261000-
NORTHWEST AND NORTH CENTRAL SOUTH DAKOTA

CITY           SKY/WX    TMP DP  RH WIND       PRES   REMARKS
BUFFALO          N/A     67  57  70 W5        30.06F
FAITH            N/A     68  57  68 N6        30.07F
MOBRIDGE       CLOUDY    69  63  81 N3        30.01S
$$

SDZ012>016-024>037-041>051-057-063-072>074-261000-
SOUTHWEST AND SOUTH CENTRAL SOUTH DAKOTA

CITY           SKY/WX    TMP DP  RH WIND       PRES   REMARKS
RAPID CTY ARPT CLOUDY    70  52  52 NW10      30.11F
PIERRE         CLOUDY    72  65  78 N8        29.98F
CUSTER         CLOUDY    63  46  54 NE13G23   30.23F
PHILIP         CLOUDY    74  58  57 NE8       30.03S
PINE RIDGE     CLOUDY    70  62  76 N9        30.07S
SPEARFISH      CLOUDY    64  57  77 S3        30.18S
WINNER         FAIR      71  68  90 NE8       29.97R
$$

SDZ004>011-016>023-039-040-261000-
NORTHEAST SOUTH DAKOTA

CITY           SKY/WX    TMP DP  RH WIND       PRES   REMARKS
ABERDEEN       CLOUDY    71  69  93 NE7       30.00R
WATERTOWN      CLOUDY    70  67  90 N6        29.98S
BROOKINGS      CLOUDY    70  68  93 CALM      29.99S
SISSETON         N/A     71  69  93 NW6       29.99S
$$

SDZ017-020-022-023-036>040-048>070-261000-
SOUTHEAST SOUTH DAKOTA

CITY           SKY/WX    TMP DP  RH WIND       PRES   REMARKS
SIOUX FALLS    LGT RAIN  72  71  97 CALM      29.98R
HURON          CLOUDY    70  69  97 E5        29.96S
CHAMBERLAIN    CLOUDY    72  71  96 E5        29.97S
MITCHELL       LGT RAIN  71  69  93 N3        29.95F
YANKTON        CLOUDY    71  70  96 SE9       29.95F
$$

ABBREVIATIONS USED IN REMARKS
   TC - TEMPERATURE IN CELSIUS
  WCI - WIND CHILL INDEX
   HX - HEAT INDEX
  VSB - VISIBILITY




USA.gov is the U.S. government's official web portal to all federal, state and local government web resources and services.